Weather History for Waterloo, IA

Change the Weather History Date:

Saturday, August 24, 2013

  Actual Average Record
Temperature  
Mean Temperature 77 °F 70 °F  
Max Temperature 87 °F 82 °F 100 °F (1936)
Min Temperature 66 °F 59 °F 41 °F (1934)
Degree Days  
Heating Degree Days 0 1  
Month to date heating degree days 6 7  
Since 1 June heating degree days 58 37  
Since 1 July heating degree days 20 11  
Cooling Degree Days 12 6  
Month to date cooling degree days 104 170  
Year to date cooling degree days 580 674  
Since 1 June cooling degree days 527 618  
Growing Degree Days 26 (Base 50)    
Moisture  
Dew Point 67 °F    
Average Humidity 71    
Maximum Humidity 81    
Minimum Humidity 61    
Precipitation  
Precipitation 0.00 in 0.13 in 1.89 in (1905)
Month to date precipitation 1.91 3.40  
Year to date precipitation 34.20 25.41  
Snow  
Snow 0.00 in 0.00 in - ()
Month to date snowfall 0.0 0.0  
Since 1 June snowfall 0.0 0.0  
Since 1 July snowfall 0.0 0.0  
Snow Depth 0.00 in    
Sea Level Pressure  
Sea Level Pressure 30.10 in    
Wind  
Wind Speed 11 mph (SSE)    
Max Wind Speed 20 mph    
Max Gust Speed 25 mph    
Visibility 10 miles    
Events      
T = Trace of Precipitation, MM = Missing Value Source: NWS Daily Summary

Daily Weather History Graph

Daily Weather History Graph

Search for Another Location

Airport:

Trip Planner

Search our weather history database for the weather conditions in past years. The results will help you decide how hot, cold, wet, or windy it might be!

Date:

Astronomy

Aug. 24, 2013 Rise Set
Actual Time 6:26 AM CDT 7:56 PM CDT
Civil Twilight 5:56 AM CDT 8:26 PM CDT
Nautical Twilight 5:20 AM CDT 9:01 PM CDT
Astronomical Twilight 4:42 AM CDT 9:39 PM CDT
Moon 9:44 PM CDT 10:33 AM CDT
Length of Visible Light 14h 29m
Length of Day
13h 30m
Waning Gibbous, 84% of the Moon is Illuminated
Aug 24
Waning Gibbous
Aug 28
Last Quarter
Sep 5
New
Sep 12
First Quarter
Sep 19
Full

Hourly Weather History & Observations

Time (CDT) Temp. Heat Index Dew Point Humidity Pressure Visibility Wind Dir Wind Speed Gust Speed Precip Events Conditions
12:54 AM 71.1 °F - 61.0 °F 70% 30.09 in 10.0 mi SSE 11.5 mph - N/A   Scattered Clouds
1:54 AM 70.0 °F - 61.0 °F 73% 30.10 in 10.0 mi SSE 8.1 mph - N/A   Partly Cloudy
2:54 AM 70.0 °F - 62.1 °F 76% 30.10 in 10.0 mi SE 8.1 mph - N/A   Mostly Cloudy
3:54 AM 68.0 °F - 62.1 °F 81% 30.12 in 10.0 mi SE 10.4 mph - N/A   Clear
4:54 AM 68.0 °F - 62.1 °F 81% 30.12 in 10.0 mi SE 8.1 mph - N/A   Partly Cloudy
5:54 AM 66.9 °F - 61.0 °F 81% 30.13 in 10.0 mi ESE 6.9 mph - N/A   Clear
6:54 AM 66.9 °F - 61.0 °F 81% 30.15 in 10.0 mi SE 9.2 mph - N/A   Clear
7:54 AM 68.0 °F - 61.0 °F 78% 30.16 in 10.0 mi SE 8.1 mph - N/A   Clear
8:54 AM 71.1 °F - 63.0 °F 75% 30.17 in 10.0 mi SSE 10.4 mph - N/A   Clear
9:54 AM 75.0 °F - 66.0 °F 73% 30.16 in 10.0 mi South 9.2 mph 17.3 mph N/A   Clear
10:54 AM 78.1 °F - 69.1 °F 74% 30.15 in 10.0 mi South 10.4 mph - N/A   Clear
11:54 AM 81.0 °F 84.1 °F 69.1 °F 67% 30.13 in 10.0 mi SSE 13.8 mph - N/A   Clear
12:54 PM 84.0 °F 89.6 °F 72.0 °F 67% 30.12 in 10.0 mi SSE 12.7 mph 19.6 mph N/A   Clear
1:54 PM 84.0 °F 89.6 °F 72.0 °F 67% 30.10 in 10.0 mi SSE 12.7 mph - N/A   Partly Cloudy
2:54 PM 86.0 °F 92.2 °F 72.0 °F 63% 30.08 in 10.0 mi SSE 16.1 mph - N/A   Clear
3:54 PM 86.0 °F 91.5 °F 71.1 °F 61% 30.06 in 10.0 mi South 15.0 mph - N/A   Partly Cloudy
4:54 PM 84.9 °F 88.8 °F 69.1 °F 59% 30.06 in 10.0 mi South 13.8 mph - N/A   Clear
5:54 PM 84.9 °F 90.1 °F 71.1 °F 63% 30.06 in 10.0 mi South 10.4 mph - N/A   Clear
6:54 PM 84.0 °F 89.0 °F 71.1 °F 65% 30.06 in 10.0 mi SSE 9.2 mph - N/A   Clear
7:54 PM 82.0 °F 86.7 °F 72.0 °F 71% 30.07 in 10.0 mi SSE 10.4 mph - N/A   Clear
8:54 PM 81.0 °F 84.9 °F 71.1 °F 72% 30.07 in 10.0 mi SSE 13.8 mph - N/A   Clear
9:54 PM 80.1 °F 83.6 °F 71.1 °F 74% 30.08 in 10.0 mi SSE 15.0 mph - N/A   Clear
10:54 PM 79.0 °F - 70.0 °F 74% 30.08 in 10.0 mi SSE 13.8 mph - N/A   Clear
11:54 PM 78.1 °F - 70.0 °F 76% 30.08 in 10.0 mi South 13.8 mph - N/A   Clear